This is the latest recevied weather packets stored in our database for station/object Kisslegg. If no packets are shown the sender has not sent any weather packets the latest 10 day(s).
| Time | Temp. | Humidity | Pressure | Rain* | Wind** | Luminosity | Snow |
|---|---|---|---|---|---|---|---|
| 1777935730 | 11.11° C | 79% | 1010.6 hPa | 0 mm | - | - | - |
| 1777933935 | 11.67° C | 72% | 1010.9 hPa | 0 mm | - | - | - |
| 1777932129 | 12.22° C | 68% | 1011 hPa | 0 mm | - | - | - |
| 1777930329 | 13.33° C | 64% | 1011.2 hPa | 0 mm | - | - | - |
| 1777928529 | 13.89° C | 61% | 1011 hPa | 0 mm | - | - | - |
| 1777926729 | 15.56° C | 55% | 1010.8 hPa | 0 mm | - | - | - |
| 1777924929 | 15.56° C | 55% | 1010.8 hPa | 0 mm | - | - | - |
| 1777923129 | 16.11° C | 55% | 1010.7 hPa | 0 mm | - | - | - |
| 1777921329 | 16.67° C | 52% | 1010.6 hPa | 0 mm | - | - | - |
| 1777919529 | 17.22° C | 52% | 1010.8 hPa | 0 mm | - | - | - |
| 1777917734 | 17.78° C | 53% | 1010.7 hPa | 0 mm | - | - | - |
| 1777915929 | 18.89° C | 49% | 1010.5 hPa | 0 mm | - | - | - |
| 1777914130 | 19.44° C | 48% | 1010.6 hPa | 0 mm | - | - | - |
| 1777912332 | 20.56° C | 44% | 1010.4 hPa | 0 mm | - | - | - |
| 1777910530 | 21.11° C | 40% | 1010.4 hPa | 0 mm | - | - | - |
| 1777908732 | 21.67° C | 39% | 1010.2 hPa | 0 mm | - | - | - |
| 1777906930 | 22.22° C | 34% | 1010.1 hPa | 0 mm | - | - | - |
| 1777905129 | 22.78° C | 33% | 1010.3 hPa | 0 mm | - | - | - |
| 1777903330 | 22.78° C | 35% | 1010.6 hPa | 0 mm | - | - | - |
| 1777901532 | 22.78° C | 34% | 1010.7 hPa | 0 mm | - | - | - |
| 1777899735 | 23.33° C | 39% | 1010.8 hPa | 0 mm | - | - | - |
| 1777897935 | 21.67° C | 45% | 1011 hPa | 0 mm | - | - | - |
| 1777896130 | 20.56° C | 44% | 1011.3 hPa | 0 mm | - | - | - |
| 1777894331 | 21.67° C | 47% | 1011.4 hPa | 0 mm | - | - | - |
| 1777892530 | 20.56° C | 47% | 1011.6 hPa | 0 mm | - | - | - |
* Rain since midnight (hover to see other rain measurements)
** Current wind speed in m/s (hover to see current wind gust speed)